owner,sensor,date,latitude,longitude,vertical_datum,wind_speed,wind_to_direction,wind_speed_of_gust,qcFlag 
LUMCON,ioos:station:LUMCON:102:1,2011-09-01T19:00:00Z,29.1870,-90.6093,0.0,6.2,90.0,9.8,'11111222,11111222,11111222' 
LUMCON,ioos:station:LUMCON:102:1,2011-09-01T22:00:00Z,29.1870,-90.6093,0.0,9.3,90.0,9.8,'11111222,11111222,11111222' 
LUMCON,ioos:station:LUMCON:102:1,2011-09-01T23:00:00Z,29.1870,-90.6093,0.0,10.3,80.0,99.0,'11111222,11111222,11144222' 
LUMCON,ioos:station:LUMCON:102:1,2011-09-02T00:00:00Z,29.1870,-90.6093,0.0,10.3,80.0,99.0,'11111222,11111222,11144222' 
LUMCON,ioos:station:LUMCON:102:1,2011-09-02T01:00:00Z,29.1870,-90.6093,0.0,11.8,100.0,99.0,'11111222,11111222,11144222' 
LUMCON,ioos:station:LUMCON:102:1,2011-09-02T02:00:00Z,29.1870,-90.6093,0.0,10.8,100.0,99.0,'11111222,11111222,11144222' 
LUMCON,ioos:station:LUMCON:102:1,2011-09-02T03:00:00Z,29.1870,-90.6093,0.0,10.3,110.0,99.0,'11111222,11111222,11144222' 
LUMCON,ioos:station:LUMCON:102:1,2011-09-02T04:00:00Z,29.1870,-90.6093,0.0,12.4,110.0,18.0,'11111222,11111222,11111222' 
LUMCON,ioos:station:LUMCON:102:1,2011-09-02T06:00:00Z,29.1870,-90.6093,0.0,10.8,130.0,14.4,'11111222,11111222,11111222' 
LUMCON,ioos:station:LUMCON:102:1,2011-09-02T07:00:00Z,29.1870,-90.6093,0.0,10.3,120.0,99.0,'11111222,11111222,11144222' 
LUMCON,ioos:station:LUMCON:102:1,2011-09-02T08:00:00Z,29.1870,-90.6093,0.0,9.3,120.0,9.8,'11111222,11111222,11111222' 
LUMCON,ioos:station:LUMCON:102:1,2011-09-02T14:00:00Z,29.1870,-90.6093,0.0,8.2,90.0,9.8,'11111222,11111222,11111222' 
LUMCON,ioos:station:LUMCON:102:1,2011-09-02T16:00:00Z,29.1870,-90.6093,0.0,11.3,110.0,99.0,'11111222,11111222,11144222' 
LUMCON,ioos:station:LUMCON:102:1,2011-09-02T18:00:00Z,29.1870,-90.6093,0.0,10.3,90.0,99.0,'11111222,11111222,11144222' 
LUMCON,ioos:station:LUMCON:102:1,2011-09-02T20:00:00Z,29.1870,-90.6093,0.0,10.3,90.0,99.0,'11111222,11111222,11144222' 
LUMCON,ioos:station:LUMCON:102:1,2011-09-02T22:00:00Z,29.1870,-90.6093,0.0,11.8,80.0,17.5,'11111222,11111222,11111222' 
LUMCON,ioos:station:LUMCON:102:1,2011-09-02T23:00:00Z,29.1870,-90.6093,0.0,12.9,80.0,19.0,'11111222,11111222,11111222' 
LUMCON,ioos:station:LUMCON:102:1,2011-09-03T00:00:00Z,29.1870,-90.6093,0.0,11.3,60.0,14.9,'11111222,11111222,11111222' 
LUMCON,ioos:station:LUMCON:102:1,2011-09-03T01:00:00Z,29.1870,-90.6093,0.0,10.3,80.0,99.0,'11111222,11111222,11144222' 
LUMCON,ioos:station:LUMCON:102:1,2011-09-03T02:00:00Z,29.1870,-90.6093,0.0,13.9,80.0,20.6,'11111222,11111222,11111222' 
LUMCON,ioos:station:LUMCON:102:1,2011-09-03T03:00:00Z,29.1870,-90.6093,0.0,12.9,90.0,21.1,'11111222,11111222,11111222' 
LUMCON,ioos:station:LUMCON:102:1,2011-09-03T04:00:00Z,29.1870,-90.6093,0.0,15.4,110.0,22.1,'11111222,11111222,11111222' 
LUMCON,ioos:station:LUMCON:102:1,2011-09-03T15:00:00Z,29.1870,-90.6093,0.0,6.2,60.0,9.3,'11111222,11111222,11111222' 
LUMCON,ioos:station:LUMCON:102:1,2011-09-05T15:00:00Z,29.1870,-90.6093,0.0,11.8,340.0,14.9,'11111222,11111222,11111222' 
LUMCON,ioos:station:LUMCON:102:1,2011-09-05T16:00:00Z,29.1870,-90.6093,0.0,10.8,330.0,13.9,'11111222,11111222,11111222' 
LUMCON,ioos:station:LUMCON:102:1,2011-09-05T17:00:00Z,29.1870,-90.6093,0.0,11.3,320.0,14.9,'11111222,11111222,11111222' 
LUMCON,ioos:station:LUMCON:102:1,2011-09-05T18:00:00Z,29.1870,-90.6093,0.0,10.8,330.0,14.9,'11111222,11111222,11111222' 
LUMCON,ioos:station:LUMCON:102:1,2011-09-05T19:00:00Z,29.1870,-90.6093,0.0,9.8,330.0,99.0,'11111222,11111222,11144222' 
LUMCON,ioos:station:LUMCON:102:1,2011-09-05T20:00:00Z,29.1870,-90.6093,0.0,8.2,330.0,9.8,'11111222,11111222,11111222' 
LUMCON,ioos:station:LUMCON:102:1,2011-09-05T21:00:00Z,29.1870,-90.6093,0.0,7.7,330.0,9.8,'11111222,11111222,11111222' 
LUMCON,ioos:station:LUMCON:102:1,2011-09-05T22:00:00Z,29.1870,-90.6093,0.0,8.8,340.0,9.8,'11111222,11111222,11111222' 
LUMCON,ioos:station:LUMCON:102:1,2011-09-05T23:00:00Z,29.1870,-90.6093,0.0,8.2,330.0,9.8,'11111222,11111222,11111222' 
LUMCON,ioos:station:LUMCON:102:1,2011-09-06T00:00:00Z,29.1870,-90.6093,0.0,9.3,340.0,9.8,'11111222,11111222,11111222' 
LUMCON,ioos:station:LUMCON:102:1,2011-09-06T14:00:00Z,29.1870,-90.6093,0.0,5.1,310.0,7.2,'11111222,11111222,11111222' 
LUMCON,ioos:station:LUMCON:102:1,2011-09-06T15:00:00Z,29.1870,-90.6093,0.0,5.7,0.0,7.2,'11111222,11111222,11111222' 
LUMCON,ioos:station:LUMCON:102:1,2011-09-06T16:00:00Z,29.1870,-90.6093,0.0,5.7,0.0,7.2,'11111222,11111222,11111222' 
LUMCON,ioos:station:LUMCON:102:1,2011-09-06T17:00:00Z,29.1870,-90.6093,0.0,5.1,10.0,7.2,'11111222,11111222,11111222' 
LUMCON,ioos:station:LUMCON:102:1,2011-09-06T18:00:00Z,29.1870,-90.6093,0.0,4.6,10.0,6.7,'11111222,11111222,11111222' 
LUMCON,ioos:station:LUMCON:102:1,2011-09-06T19:00:00Z,29.1870,-90.6093,0.0,4.1,10.0,6.7,'11111222,11111222,11111222' 
LUMCON,ioos:station:LUMCON:102:1,2011-09-06T20:00:00Z,29.1870,-90.6093,0.0,4.1,10.0,6.7,'11111222,11111222,11111222' 
LUMCON,ioos:station:LUMCON:102:1,2011-09-06T21:00:00Z,29.1870,-90.6093,0.0,4.1,20.0,6.2,'11111222,11111222,11111222' 
LUMCON,ioos:station:LUMCON:102:1,2011-09-06T22:00:00Z,29.1870,-90.6093,0.0,3.6,10.0,6.2,'11111222,11111222,11111222' 
LUMCON,ioos:station:LUMCON:102:1,2011-09-06T23:00:00Z,29.1870,-90.6093,0.0,4.1,20.0,5.7,'11111222,11111222,11111222' 
LUMCON,ioos:station:LUMCON:102:1,2011-09-07T00:00:00Z,29.1870,-90.6093,0.0,4.1,350.0,6.2,'11111222,11111222,11111222' 
LUMCON,ioos:station:LUMCON:102:1,2011-09-07T01:00:00Z,29.1870,-90.6093,0.0,4.1,20.0,6.2,'11111222,11111222,11111222' 
LUMCON,ioos:station:LUMCON:102:1,2011-09-07T02:00:00Z,29.1870,-90.6093,0.0,3.6,340.0,5.1,'11111222,11111222,11111222' 
LUMCON,ioos:station:LUMCON:102:1,2011-09-07T03:00:00Z,29.1870,-90.6093,0.0,3.6,360.0,5.1,'11111222,11144222,11111222' 
LUMCON,ioos:station:LUMCON:102:1,2011-09-07T04:00:00Z,29.1870,-90.6093,0.0,4.1,350.0,5.1,'11111222,11111222,11111222' 
LUMCON,ioos:station:LUMCON:102:1,2011-09-07T05:00:00Z,29.1870,-90.6093,0.0,6.2,10.0,9.8,'11111222,11111222,11111222' 
LUMCON,ioos:station:LUMCON:102:1,2011-09-07T07:00:00Z,29.1870,-90.6093,0.0,5.1,30.0,7.7,'11111222,11111222,11111222' 
LUMCON,ioos:station:LUMCON:102:1,2011-09-07T08:00:00Z,29.1870,-90.6093,0.0,5.7,20.0,8.2,'11111222,11111222,11111222' 
LUMCON,ioos:station:LUMCON:102:1,2011-09-07T09:00:00Z,29.1870,-90.6093,0.0,5.1,20.0,7.2,'11111222,11111222,11111222' 
LUMCON,ioos:station:LUMCON:102:1,2011-09-07T10:00:00Z,29.1870,-90.6093,0.0,4.6,30.0,7.7,'11111222,11111222,11111222' 
LUMCON,ioos:station:LUMCON:102:1,2011-09-07T11:00:00Z,29.1870,-90.6093,0.0,5.1,20.0,7.2,'11111222,11111222,11111222' 
LUMCON,ioos:station:LUMCON:102:1,2011-09-07T12:00:00Z,29.1870,-90.6093,0.0,5.1,20.0,8.2,'11111222,11111222,11111222' 
LUMCON,ioos:station:LUMCON:102:1,2011-09-07T13:00:00Z,29.1870,-90.6093,0.0,5.7,30.0,7.2,'11111222,11111222,11111222' 
LUMCON,ioos:station:LUMCON:102:1,2011-09-07T14:00:00Z,29.1870,-90.6093,0.0,6.2,30.0,7.7,'11111222,11111222,11111222' 
LUMCON,ioos:station:LUMCON:102:1,2011-09-07T15:00:00Z,29.1870,-90.6093,0.0,6.2,40.0,7.2,'11111222,11111222,11111222' 
LUMCON,ioos:station:LUMCON:102:1,2011-09-07T16:00:00Z,29.1870,-90.6093,0.0,6.2,40.0,7.7,'11111222,11111222,11111222' 
LUMCON,ioos:station:LUMCON:102:1,2011-09-07T17:00:00Z,29.1870,-90.6093,0.0,5.1,40.0,6.7,'11111222,11111222,11111222' 
LUMCON,ioos:station:LUMCON:102:1,2011-09-07T18:00:00Z,29.1870,-90.6093,0.0,5.1,20.0,7.2,'11111222,11111222,11111222' 
LUMCON,ioos:station:LUMCON:102:1,2011-09-07T19:00:00Z,29.1870,-90.6093,0.0,4.1,20.0,6.7,'11111222,11111222,11111222' 
LUMCON,ioos:station:LUMCON:102:1,2011-09-07T20:00:00Z,29.1870,-90.6093,0.0,5.1,20.0,7.7,'11111222,11111222,11111222' 
LUMCON,ioos:station:LUMCON:102:1,2011-09-07T22:00:00Z,29.1870,-90.6093,0.0,4.6,20.0,6.2,'11111222,11111222,11111222' 
LUMCON,ioos:station:LUMCON:102:1,2011-09-07T23:00:00Z,29.1870,-90.6093,0.0,5.1,40.0,6.2,'11111222,11111222,11111222' 
LUMCON,ioos:station:LUMCON:102:1,2011-09-08T00:00:00Z,29.1870,-90.6093,0.0,4.1,50.0,6.7,'11111222,11111222,11111222' 
LUMCON,ioos:station:LUMCON:102:1,2011-09-08T01:00:00Z,29.1870,-90.6093,0.0,3.6,50.0,5.7,'11111222,11111222,11111222' 
LUMCON,ioos:station:LUMCON:102:1,2011-09-08T02:00:00Z,29.1870,-90.6093,0.0,3.6,50.0,5.1,'11111222,11111222,11111222' 
LUMCON,ioos:station:LUMCON:102:1,2011-09-08T03:00:00Z,29.1870,-90.6093,0.0,3.1,360.0,4.6,'11111222,11144222,11111222' 
LUMCON,ioos:station:LUMCON:102:1,2011-09-08T04:00:00Z,29.1870,-90.6093,0.0,2.6,20.0,3.6,'11111222,11111222,11111222' 
LUMCON,ioos:station:LUMCON:102:1,2011-09-08T05:00:00Z,29.1870,-90.6093,0.0,2.6,20.0,4.1,'11111222,11111222,11111222' 
LUMCON,ioos:station:LUMCON:102:1,2011-09-08T06:00:00Z,29.1870,-90.6093,0.0,3.1,320.0,5.1,'11111222,11111222,11111222' 
LUMCON,ioos:station:LUMCON:102:1,2011-09-08T07:00:00Z,29.1870,-90.6093,0.0,3.1,30.0,4.6,'11111222,11111222,11111222' 
LUMCON,ioos:station:LUMCON:102:1,2011-09-08T08:00:00Z,29.1870,-90.6093,0.0,3.6,20.0,5.1,'11111222,11111222,11111222' 
LUMCON,ioos:station:LUMCON:102:1,2011-09-08T09:00:00Z,29.1870,-90.6093,0.0,4.1,30.0,5.1,'11111222,11111222,11111222' 
LUMCON,ioos:station:LUMCON:102:1,2011-09-08T10:00:00Z,29.1870,-90.6093,0.0,4.1,20.0,6.2,'11111222,11111222,11111222' 
LUMCON,ioos:station:LUMCON:102:1,2011-09-08T11:00:00Z,29.1870,-90.6093,0.0,4.1,20.0,6.2,'11111222,11111222,11111222' 
LUMCON,ioos:station:LUMCON:102:1,2011-09-08T12:00:00Z,29.1870,-90.6093,0.0,4.6,30.0,6.7,'11111222,11111222,11111222' 
LUMCON,ioos:station:LUMCON:102:1,2011-09-08T13:00:00Z,29.1870,-90.6093,0.0,3.6,30.0,5.7,'11111222,11111222,11111222' 
LUMCON,ioos:station:LUMCON:102:1,2011-09-08T14:00:00Z,29.1870,-90.6093,0.0,4.1,40.0,5.7,'11111222,11111222,11111222' 
LUMCON,ioos:station:LUMCON:102:1,2011-09-08T15:00:00Z,29.1870,-90.6093,0.0,4.6,40.0,5.7,'11111222,11111222,11111222' 
LUMCON,ioos:station:LUMCON:102:1,2011-09-08T16:00:00Z,29.1870,-90.6093,0.0,5.1,50.0,6.7,'11111222,11111222,11111222' 
LUMCON,ioos:station:LUMCON:102:1,2011-09-08T17:00:00Z,29.1870,-90.6093,0.0,4.1,30.0,7.2,'11111222,11111222,11111222' 
LUMCON,ioos:station:LUMCON:102:1,2011-09-08T18:00:00Z,29.1870,-90.6093,0.0,3.1,60.0,5.7,'11111222,11111222,11111222' 
LUMCON,ioos:station:LUMCON:102:1,2011-09-08T19:00:00Z,29.1870,-90.6093,0.0,2.6,30.0,4.1,'11111222,11111222,11111222' 
LUMCON,ioos:station:LUMCON:102:1,2011-09-08T23:00:00Z,29.1870,-90.6093,0.0,2.1,90.0,4.6,'11111222,11111222,11111222' 
LUMCON,ioos:station:LUMCON:102:1,2011-09-09T00:00:00Z,29.1870,-90.6093,0.0,2.1,70.0,3.6,'11111222,11111222,11111222' 
LUMCON,ioos:station:LUMCON:102:1,2011-09-09T01:00:00Z,29.1870,-90.6093,0.0,3.6,60.0,5.7,'11111222,11111222,11111222' 
LUMCON,ioos:station:LUMCON:102:1,2011-09-09T02:00:00Z,29.1870,-90.6093,0.0,2.6,60.0,4.6,'11111222,11111222,11111222' 
LUMCON,ioos:station:LUMCON:102:1,2011-09-09T03:00:00Z,29.1870,-90.6093,0.0,2.1,320.0,2.6,'11111222,11111222,11111222' 
LUMCON,ioos:station:LUMCON:102:1,2011-09-09T04:00:00Z,29.1870,-90.6093,0.0,2.6,270.0,3.1,'11111222,11111222,11111222' 
LUMCON,ioos:station:LUMCON:102:1,2011-09-09T05:00:00Z,29.1870,-90.6093,0.0,2.6,270.0,3.1,'11111222,11111222,11111222' 
LUMCON,ioos:station:LUMCON:102:1,2011-09-09T06:00:00Z,29.1870,-90.6093,0.0,3.1,300.0,4.6,'11111222,11111222,11111222' 
LUMCON,ioos:station:LUMCON:102:1,2011-09-09T07:00:00Z,29.1870,-90.6093,0.0,2.1,300.0,3.6,'11111222,11111222,11111222' 
LUMCON,ioos:station:LUMCON:102:1,2011-09-09T08:00:00Z,29.1870,-90.6093,0.0,2.1,340.0,3.1,'11111222,11111222,11111222' 
LUMCON,ioos:station:LUMCON:102:1,2011-09-09T09:00:00Z,29.1870,-90.6093,0.0,2.1,330.0,2.6,'11111222,11111222,11111222' 
LUMCON,ioos:station:LUMCON:102:1,2011-09-09T10:00:00Z,29.1870,-90.6093,0.0,2.6,350.0,3.6,'11111222,11111222,11111222' 
LUMCON,ioos:station:LUMCON:102:1,2011-09-09T11:00:00Z,29.1870,-90.6093,0.0,3.1,340.0,3.6,'11111222,11111222,11111222' 
LUMCON,ioos:station:LUMCON:102:1,2011-09-09T12:00:00Z,29.1870,-90.6093,0.0,2.6,30.0,3.6,'11111222,11111222,11111222' 
LUMCON,ioos:station:LUMCON:102:1,2011-09-09T13:00:00Z,29.1870,-90.6093,0.0,2.1,30.0,2.6,'11111222,11111222,11111222' 
LUMCON,ioos:station:LUMCON:102:1,2011-09-09T14:00:00Z,29.1870,-90.6093,0.0,2.1,20.0,3.1,'11111222,11111222,11111222' 
LUMCON,ioos:station:LUMCON:102:1,2011-09-09T15:00:00Z,29.1870,-90.6093,0.0,2.6,30.0,3.6,'11111222,11111222,11111222' 
LUMCON,ioos:station:LUMCON:102:1,2011-09-09T17:00:00Z,29.1870,-90.6093,0.0,2.1,30.0,3.6,'11111222,11111222,11111222' 
LUMCON,ioos:station:LUMCON:102:1,2011-09-09T18:00:00Z,29.1870,-90.6093,0.0,1.5,30.0,4.6,'11111222,11111222,11111222' 
LUMCON,ioos:station:LUMCON:102:1,2011-09-09T20:00:00Z,29.1870,-90.6093,0.0,1.5,190.0,3.6,'11111222,11111222,11111222' 
LUMCON,ioos:station:LUMCON:102:1,2011-09-09T22:00:00Z,29.1870,-90.6093,0.0,2.6,310.0,4.1,'11111222,11111222,11111222' 
LUMCON,ioos:station:LUMCON:102:1,2011-09-10T00:00:00Z,29.1870,-90.6093,0.0,2.6,230.0,3.6,'11111222,11111222,11111222' 
LUMCON,ioos:station:LUMCON:102:1,2011-09-10T02:00:00Z,29.1870,-90.6093,0.0,1.5,220.0,2.6,'11111222,11111222,11111222' 
LUMCON,ioos:station:LUMCON:102:1,2011-09-10T07:00:00Z,29.1870,-90.6093,0.0,1.5,190.0,2.6,'11111222,11111222,11111222' 
LUMCON,ioos:station:LUMCON:102:1,2011-09-10T09:00:00Z,29.1870,-90.6093,0.0,1.0,230.0,2.1,'11111222,11111222,11111222' 
LUMCON,ioos:station:LUMCON:102:1,2011-09-10T10:00:00Z,29.1870,-90.6093,0.0,1.0,230.0,1.5,'11111222,11111222,11111222' 
LUMCON,ioos:station:LUMCON:102:1,2011-09-10T11:00:00Z,29.1870,-90.6093,0.0,1.5,270.0,2.1,'11111222,11111222,11111222' 
LUMCON,ioos:station:LUMCON:102:1,2011-09-10T12:00:00Z,29.1870,-90.6093,0.0,1.5,290.0,2.6,'11111222,11111222,11111222' 
LUMCON,ioos:station:LUMCON:102:1,2011-09-10T13:00:00Z,29.1870,-90.6093,0.0,1.5,310.0,2.1,'11111222,11111222,11111222' 
LUMCON,ioos:station:LUMCON:102:1,2011-09-10T14:00:00Z,29.1870,-90.6093,0.0,2.1,320.0,3.1,'11111222,11111222,11111222' 
LUMCON,ioos:station:LUMCON:102:1,2011-09-10T15:00:00Z,29.1870,-90.6093,0.0,1.5,300.0,3.1,'11111222,11111222,11111222' 
LUMCON,ioos:station:LUMCON:102:1,2011-09-10T16:00:00Z,29.1870,-90.6093,0.0,1.5,10.0,3.6,'11111222,11111222,11111222' 
LUMCON,ioos:station:LUMCON:102:1,2011-09-10T17:00:00Z,29.1870,-90.6093,0.0,2.1,80.0,4.6,'11111222,11111222,11111222' 
LUMCON,ioos:station:LUMCON:102:1,2011-09-12T14:00:00Z,29.1870,-90.6093,0.0,1.0,320.0,1.5,'11111222,11111222,11111222' 
LUMCON,ioos:station:LUMCON:102:1,2011-09-12T15:00:00Z,29.1870,-90.6093,0.0,1.5,310.0,2.6,'11111222,11111222,11111222' 
LUMCON,ioos:station:LUMCON:102:1,2011-09-12T17:00:00Z,29.1870,-90.6093,0.0,1.0,170.0,2.1,'11111222,11111222,11111222' 
LUMCON,ioos:station:LUMCON:102:1,2011-09-12T18:00:00Z,29.1870,-90.6093,0.0,2.1,140.0,4.1,'11111222,11111222,11111222' 
LUMCON,ioos:station:LUMCON:102:1,2011-09-12T19:00:00Z,29.1870,-90.6093,0.0,2.1,140.0,4.1,'11111222,11111222,11111222' 
LUMCON,ioos:station:LUMCON:102:1,2011-09-12T20:00:00Z,29.1870,-90.6093,0.0,3.1,160.0,5.1,'11111222,11111222,11111222' 
LUMCON,ioos:station:LUMCON:102:1,2011-09-12T21:00:00Z,29.1870,-90.6093,0.0,3.6,170.0,5.1,'11111222,11111222,11111222' 
LUMCON,ioos:station:LUMCON:102:1,2011-09-12T22:00:00Z,29.1870,-90.6093,0.0,3.6,180.0,4.6,'11111222,11111222,11111222' 
LUMCON,ioos:station:LUMCON:102:1,2011-09-12T23:00:00Z,29.1870,-90.6093,0.0,3.6,190.0,5.1,'11111222,11111222,11111222' 
LUMCON,ioos:station:LUMCON:102:1,2011-09-13T16:00:00Z,29.1870,-90.6093,0.0,1.5,250.0,3.6,'11111222,11111222,11111222' 
LUMCON,ioos:station:LUMCON:102:1,2011-09-13T17:00:00Z,29.1870,-90.6093,0.0,2.6,220.0,4.1,'11111222,11111222,11111222' 
LUMCON,ioos:station:LUMCON:102:1,2011-09-13T18:00:00Z,29.1870,-90.6093,0.0,3.1,250.0,4.6,'11111222,11111222,11111222' 
LUMCON,ioos:station:LUMCON:102:1,2011-09-13T19:00:00Z,29.1870,-90.6093,0.0,4.6,220.0,6.2,'11111222,11111222,11111222' 
LUMCON,ioos:station:LUMCON:102:1,2011-09-13T20:00:00Z,29.1870,-90.6093,0.0,4.6,230.0,6.2,'11111222,11111222,11111222' 
LUMCON,ioos:station:LUMCON:102:1,2011-09-13T21:00:00Z,29.1870,-90.6093,0.0,4.6,220.0,6.2,'11111222,11111222,11111222' 
LUMCON,ioos:station:LUMCON:102:1,2011-09-13T22:00:00Z,29.1870,-90.6093,0.0,4.6,230.0,5.7,'11111222,11111222,11111222' 
LUMCON,ioos:station:LUMCON:102:1,2011-09-14T01:00:00Z,29.1870,-90.6093,0.0,4.1,220.0,5.7,'11111222,11111222,11111222' 
LUMCON,ioos:station:LUMCON:102:1,2011-09-14T02:00:00Z,29.1870,-90.6093,0.0,4.6,220.0,6.2,'11111222,11111222,11111222' 
LUMCON,ioos:station:LUMCON:102:1,2011-09-14T03:00:00Z,29.1870,-90.6093,0.0,4.1,220.0,5.7,'11111222,11111222,11111222' 
LUMCON,ioos:station:LUMCON:102:1,2011-09-14T04:00:00Z,29.1870,-90.6093,0.0,3.6,220.0,5.7,'11111222,11111222,11111222' 
LUMCON,ioos:station:LUMCON:102:1,2011-09-14T05:00:00Z,29.1870,-90.6093,0.0,3.6,220.0,5.7,'11111222,11111222,11111222' 
LUMCON,ioos:station:LUMCON:102:1,2011-09-14T06:00:00Z,29.1870,-90.6093,0.0,3.6,220.0,5.7,'11111222,11111222,11111222' 
LUMCON,ioos:station:LUMCON:102:1,2011-09-14T07:00:00Z,29.1870,-90.6093,0.0,4.1,220.0,5.7,'11111222,11111222,11111222' 
LUMCON,ioos:station:LUMCON:102:1,2011-09-14T08:00:00Z,29.1870,-90.6093,0.0,3.6,220.0,5.7,'11111222,11111222,11111222' 
LUMCON,ioos:station:LUMCON:102:1,2011-09-14T10:00:00Z,29.1870,-90.6093,0.0,3.6,230.0,5.7,'11111222,11111222,11111222' 
LUMCON,ioos:station:LUMCON:102:1,2011-09-14T12:00:00Z,29.1870,-90.6093,0.0,3.1,250.0,5.1,'11111222,11111222,11111222' 
LUMCON,ioos:station:LUMCON:102:1,2011-09-14T14:00:00Z,29.1870,-90.6093,0.0,2.6,270.0,4.1,'11111222,11111222,11111222' 
LUMCON,ioos:station:LUMCON:102:1,2011-09-14T16:00:00Z,29.1870,-90.6093,0.0,5.7,10.0,7.2,'11111222,11111222,11111222' 
LUMCON,ioos:station:LUMCON:102:1,2011-09-14T18:00:00Z,29.1870,-90.6093,0.0,3.1,230.0,5.1,'11111222,11111222,11111222' 
LUMCON,ioos:station:LUMCON:102:1,2011-09-14T19:00:00Z,29.1870,-90.6093,0.0,4.1,190.0,6.7,'11111222,11111222,11111222' 
LUMCON,ioos:station:LUMCON:102:1,2011-09-14T20:00:00Z,29.1870,-90.6093,0.0,4.1,220.0,6.2,'11111222,11111222,11111222' 
LUMCON,ioos:station:LUMCON:102:1,2011-09-14T21:00:00Z,29.1870,-90.6093,0.0,5.1,240.0,6.7,'11111222,11111222,11111222' 
LUMCON,ioos:station:LUMCON:102:1,2011-09-14T22:00:00Z,29.1870,-90.6093,0.0,5.7,230.0,6.7,'11111222,11111222,11111222' 
LUMCON,ioos:station:LUMCON:102:1,2011-09-15T00:00:00Z,29.1870,-90.6093,0.0,4.6,240.0,6.7,'11111222,11111222,11111222' 
LUMCON,ioos:station:LUMCON:102:1,2011-09-15T01:00:00Z,29.1870,-90.6093,0.0,4.1,240.0,6.2,'11111222,11111222,11111222' 
LUMCON,ioos:station:LUMCON:102:1,2011-09-15T02:00:00Z,29.1870,-90.6093,0.0,4.6,250.0,6.7,'11111222,11111222,11111222' 
LUMCON,ioos:station:LUMCON:102:1,2011-09-15T03:00:00Z,29.1870,-90.6093,0.0,4.1,240.0,6.2,'11111222,11111222,11111222' 
LUMCON,ioos:station:LUMCON:102:1,2011-09-15T04:00:00Z,29.1870,-90.6093,0.0,4.1,240.0,5.7,'11111222,11111222,11111222' 
LUMCON,ioos:station:LUMCON:102:1,2011-09-15T05:00:00Z,29.1870,-90.6093,0.0,4.1,250.0,5.7,'11111222,11111222,11111222' 
LUMCON,ioos:station:LUMCON:102:1,2011-09-15T06:00:00Z,29.1870,-90.6093,0.0,3.6,260.0,5.1,'11111222,11111222,11111222' 
LUMCON,ioos:station:LUMCON:102:1,2011-09-15T07:00:00Z,29.1870,-90.6093,0.0,4.1,260.0,5.7,'11111222,11111222,11111222' 
LUMCON,ioos:station:LUMCON:102:1,2011-09-15T08:00:00Z,29.1870,-90.6093,0.0,3.1,270.0,4.6,'11111222,11111222,11111222' 
LUMCON,ioos:station:LUMCON:102:1,2011-09-15T09:00:00Z,29.1870,-90.6093,0.0,3.1,270.0,5.1,'11111222,11111222,11111222' 
LUMCON,ioos:station:LUMCON:102:1,2011-09-15T10:00:00Z,29.1870,-90.6093,0.0,3.6,290.0,5.1,'11111222,11111222,11111222' 
LUMCON,ioos:station:LUMCON:102:1,2011-09-15T11:00:00Z,29.1870,-90.6093,0.0,3.1,300.0,5.1,'11111222,11111222,11111222' 
LUMCON,ioos:station:LUMCON:102:1,2011-09-15T12:00:00Z,29.1870,-90.6093,0.0,3.6,310.0,5.7,'11111222,11111222,11111222' 
LUMCON,ioos:station:LUMCON:102:1,2011-09-15T13:00:00Z,29.1870,-90.6093,0.0,3.6,320.0,5.1,'11111222,11111222,11111222' 
LUMCON,ioos:station:LUMCON:102:1,2011-09-15T14:00:00Z,29.1870,-90.6093,0.0,4.6,310.0,6.2,'11111222,11111222,11111222' 
LUMCON,ioos:station:LUMCON:102:1,2011-09-15T15:00:00Z,29.1870,-90.6093,0.0,5.1,310.0,6.7,'11111222,11111222,11111222' 
LUMCON,ioos:station:LUMCON:102:1,2011-09-15T16:00:00Z,29.1870,-90.6093,0.0,4.6,310.0,6.7,'11111222,11111222,11111222' 
LUMCON,ioos:station:LUMCON:102:1,2011-09-15T17:00:00Z,29.1870,-90.6093,0.0,4.6,320.0,6.7,'11111222,11111222,11111222' 
LUMCON,ioos:station:LUMCON:102:1,2011-09-15T18:00:00Z,29.1870,-90.6093,0.0,4.1,310.0,6.7,'11111222,11111222,11111222' 
LUMCON,ioos:station:LUMCON:102:1,2011-09-15T19:00:00Z,29.1870,-90.6093,0.0,3.6,310.0,6.2,'11111222,11111222,11111222' 
LUMCON,ioos:station:LUMCON:102:1,2011-09-15T20:00:00Z,29.1870,-90.6093,0.0,4.6,320.0,7.2,'11111222,11111222,11111222' 
LUMCON,ioos:station:LUMCON:102:1,2011-09-15T21:00:00Z,29.1870,-90.6093,0.0,4.1,320.0,6.2,'11111222,11111222,11111222' 
LUMCON,ioos:station:LUMCON:102:1,2011-09-15T22:00:00Z,29.1870,-90.6093,0.0,3.6,330.0,4.6,'11111222,11111222,11111222' 
LUMCON,ioos:station:LUMCON:102:1,2011-09-15T23:00:00Z,29.1870,-90.6093,0.0,5.7,30.0,7.7,'11111222,11111222,11111222' 
LUMCON,ioos:station:LUMCON:102:1,2011-09-16T00:00:00Z,29.1870,-90.6093,0.0,7.7,40.0,9.8,'11111222,11111222,11111222' 
LUMCON,ioos:station:LUMCON:102:1,2011-09-16T01:00:00Z,29.1870,-90.6093,0.0,7.7,40.0,9.8,'11111222,11111222,11111222' 
LUMCON,ioos:station:LUMCON:102:1,2011-09-16T02:00:00Z,29.1870,-90.6093,0.0,8.8,30.0,9.8,'11111222,11111222,11111222' 
LUMCON,ioos:station:LUMCON:102:1,2011-09-16T03:00:00Z,29.1870,-90.6093,0.0,9.3,30.0,9.3,'11111222,11111222,11111222' 
LUMCON,ioos:station:LUMCON:102:1,2011-09-16T04:00:00Z,29.1870,-90.6093,0.0,7.7,30.0,8.8,'11111222,11111222,11111222' 
LUMCON,ioos:station:LUMCON:102:1,2011-09-16T05:00:00Z,29.1870,-90.6093,0.0,7.2,30.0,9.8,'11111222,11111222,11111222' 
LUMCON,ioos:station:LUMCON:102:1,2011-09-16T06:00:00Z,29.1870,-90.6093,0.0,7.2,40.0,9.8,'11111222,11111222,11111222' 
LUMCON,ioos:station:LUMCON:102:1,2011-09-16T07:00:00Z,29.1870,-90.6093,0.0,6.2,40.0,9.3,'11111222,11111222,11111222' 
LUMCON,ioos:station:LUMCON:102:1,2011-09-16T08:00:00Z,29.1870,-90.6093,0.0,6.7,60.0,9.8,'11111222,11111222,11111222' 
LUMCON,ioos:station:LUMCON:102:1,2011-09-16T09:00:00Z,29.1870,-90.6093,0.0,6.7,60.0,9.8,'11111222,11111222,11111222' 
LUMCON,ioos:station:LUMCON:102:1,2011-09-16T10:00:00Z,29.1870,-90.6093,0.0,7.2,50.0,9.8,'11111222,11111222,11111222' 
LUMCON,ioos:station:LUMCON:102:1,2011-09-16T11:00:00Z,29.1870,-90.6093,0.0,6.7,50.0,8.8,'11111222,11111222,11111222' 
LUMCON,ioos:station:LUMCON:102:1,2011-09-16T12:00:00Z,29.1870,-90.6093,0.0,6.2,50.0,8.2,'11111222,11111222,11111222' 
LUMCON,ioos:station:LUMCON:102:1,2011-09-16T13:00:00Z,29.1870,-90.6093,0.0,5.7,50.0,7.7,'11111222,11111222,11111222' 
LUMCON,ioos:station:LUMCON:102:1,2011-09-16T15:00:00Z,29.1870,-90.6093,0.0,5.1,60.0,6.7,'11111222,11111222,11111222' 
LUMCON,ioos:station:LUMCON:102:1,2011-09-16T16:00:00Z,29.1870,-90.6093,0.0,4.1,70.0,5.1,'11111222,11111222,11111222' 
LUMCON,ioos:station:LUMCON:102:1,2011-09-17T14:00:00Z,29.1870,-90.6093,0.0,4.6,70.0,6.2,'11111222,11111222,11111222' 
LUMCON,ioos:station:LUMCON:102:1,2011-09-18T20:00:00Z,29.1870,-90.6093,0.0,6.7,160.0,8.8,'11111222,11111222,11111222' 
LUMCON,ioos:station:LUMCON:102:1,2011-09-19T06:00:00Z,29.1870,-90.6093,0.0,7.2,150.0,9.3,'11111222,11111222,11111222' 
LUMCON,ioos:station:LUMCON:102:1,2011-09-19T13:00:00Z,29.1870,-90.6093,0.0,3.6,190.0,5.7,'11111222,11111222,11111222' 
LUMCON,ioos:station:LUMCON:102:1,2011-09-19T14:00:00Z,29.1870,-90.6093,0.0,3.1,290.0,5.1,'11111222,11111222,11111222' 
LUMCON,ioos:station:LUMCON:102:1,2011-09-19T15:00:00Z,29.1870,-90.6093,0.0,3.1,320.0,3.6,'11111222,11111222,11111222' 
LUMCON,ioos:station:LUMCON:102:1,2011-09-19T16:00:00Z,29.1870,-90.6093,0.0,2.1,330.0,3.1,'11111222,11111222,11111222' 
LUMCON,ioos:station:LUMCON:102:1,2011-09-19T17:00:00Z,29.1870,-90.6093,0.0,4.1,270.0,9.3,'11111222,11111222,11111222' 
LUMCON,ioos:station:LUMCON:102:1,2011-09-19T18:00:00Z,29.1870,-90.6093,0.0,3.1,260.0,4.6,'11111222,11111222,11111222' 
LUMCON,ioos:station:LUMCON:102:1,2011-09-19T19:00:00Z,29.1870,-90.6093,0.0,3.6,190.0,5.1,'11111222,11111222,11111222' 